Weather in Resolute

Canada     74°42′29″N   94°58′11″W
temp.,
°C
wind,
m/s
gust,
m/s
humid.,
%
clouds,
%
prec.,
mm/h
press.,
hPa
HPBL,
m
3 march, wed
wed300:00−22nne81389100 0.0 1005319
03:00−21ne81389100 0.0 1003259
06:00−21ene4695100 0.0 1004105
09:00−24ese5895100 0.1 1006196
12:00−27sse5898100 0.1 1008307
15:00−27sse81196100 0.1 1012381
18:00−25sse91298100 0.2 1016302
21:00−25s91398100 0.2 1022368
4 march, thu
thu400:00−29s101496100 0.3 1027403
03:00−32sse61298100 0.1 1032327
06:00−33sse61099100 0.1 1035285
09:00−33se4899100 0.1 1037231
12:00−33se4899100 0.1 1038254
15:00−33se4699100 0.1 1040147
18:00−34ese3399100 0.1 104052
21:00−34se2399100 0.0 104230
5 march, fri
fri500:00−35sse1210099 0.1 104019
03:00−36s11100100 0.0 104119
06:00−36wsw1110097 0.0 104019
09:00−36w1110096 0.0 104019
12:00−35wsw1110098 0.0 103820
15:00−36w119995 0.0 103819
18:00−37ssw019959 0.0 103619
21:00−37sse11960 0.0 103519
6 march, sat
sat600:00−37sse11940 0.0 103319
03:00−37se11840 0.0 103219
06:00−35ese22730 0.0 103019
09:00−34e22690 0.0 102821
12:00−32e22720 0.0 102726
15:00−31e23800 0.0 102623
18:00−32ene33850 0.0 102425
21:00−32ene33820 0.0 102428
7 march, sun
sun700:00−32ene33810 0.0 102327
03:00−32ene33800 0.0 102325
06:00−32ne33790 0.0 102224
09:00−32ne33790 0.0 102322
12:00−31ne33800 0.0 102237
15:00−32nne33810 0.0 102336
18:00−33ne34810 0.0 102339
21:00−33ne33810 0.0 102436